Click on desired case number or refine your search to continue

Case TitleCourtCase NoChpDate FiledClosedDisposition
Peabody Cardinal Gasification, LLCMissouri Eastern4:16-bk-425421104/13/201610/05/2017Discharge Not Applicable 10/05/2017
Peabody Operations Holding, LLCMissouri Eastern4:16-bk-426781104/13/201610/05/2017Discharge Not Applicable
Peabody Rocky Mountain Services, LLCMissouri Eastern4:16-bk-426161104/13/201612/07/2017Discharge Not Applicable
Moffat County Mining, LLCMissouri Eastern4:16-bk-426361104/13/201610/05/2017Discharge Not Applicable
Peabody Colorado Operations, LLCMissouri Eastern4:16-bk-425631104/13/201612/07/2017Discharge Not Applicable 12/07/2017
Peabody Wild Boar Services, LLCMissouri Eastern4:16-bk-426771104/13/201612/07/2017Discharge Not Applicable
Independence Material Handling, LLCMissouri Eastern4:16-bk-426061104/13/201611/16/2017Discharge Not Applicable
American Land Holdings of Colorado LLCMissouri Eastern4:16-bk-425401104/13/201610/05/2017Discharge Not Applicable
Peabody Midwest Operations, LLCMissouri Eastern4:16-bk-426601104/13/201612/07/2017Discharge Not Applicable
Cottonwood Land CompanyMissouri Eastern4:16-bk-425721104/13/201601/11/2018Discharge Not Applicable
Lively Grove Energy, LLCMissouri Eastern4:16-bk-425951104/13/201610/05/2017Discharge Not Applicable
Twentymile Equipment Company, LLCMissouri Eastern4:16-bk-426751104/13/201610/05/2017Discharge Not Applicable
Peabody International Services, Inc.Missouri Eastern4:16-bk-425411104/13/201601/11/2018Discharge Not Applicable 01/11/2018
Peabody IC Holdings, LLCMissouri Eastern4:16-bk-426011104/13/201610/05/2017Discharge Not Applicable 10/05/2017
Peabody Williams Fork Mining, LLCMissouri Eastern4:16-bk-426301104/13/201612/07/2017Discharge Not Applicable
Peabody Services Holdings, LLCMissouri Eastern4:16-bk-426451104/13/201610/05/2017Discharge Not Applicable
Peabody New Mexico Services, LLCMissouri Eastern4:16-bk-426461104/13/201612/07/2017Discharge Not Applicable
American Land Holdings of Illinois, LLCMissouri Eastern4:16-bk-426001104/13/201611/16/2017Discharge Not Applicable
Kentucky Syngas, LLCMissouri Eastern4:16-bk-426181104/13/201610/05/2017Discharge Not Applicable
American Land Holdings of Indiana, LLCMissouri Eastern4:16-bk-425461104/13/201601/11/2018Discharge Not Applicable
Peabody Southwestern Coal Company, LLCMissouri Eastern4:16-bk-426411104/13/201612/07/2017Discharge Not Applicable
Sugar Camp Properties, LLCMissouri Eastern4:16-bk-426491104/13/201610/05/2017Discharge Not Applicable
Thoroughbred Generating Company LLCMissouri Eastern4:16-bk-426791104/13/201610/05/2017Discharge Not Applicable
Southwest Coal Holdings, LLCMissouri Eastern4:16-bk-426741104/13/201610/05/2017Discharge Not Applicable
Peabody Magnolia Grove Holdings, LLCMissouri Eastern4:16-bk-425871104/13/201610/05/2017Discharge Not Applicable 10/05/2017
Peabody China, LLCMissouri Eastern4:16-bk-425521104/13/201610/05/2017Discharge Not Applicable 10/05/2017
Seneca Coal Company, LLCMissouri Eastern4:16-bk-426521104/13/201601/11/2018Discharge Not Applicable
Four Star Holdings, LLCMissouri Eastern4:16-bk-425561104/13/201610/05/2017Discharge Not Applicable
Peabody Trout Creek Reservoir LLCMissouri Eastern4:16-bk-426221104/13/201610/05/2017Discharge Not Applicable
Peabody Recreational Lands L.L.C.Missouri Eastern4:16-bk-426051104/13/201611/16/2017Discharge Not Applicable
Peabody Wyoming Gas, LLCMissouri Eastern4:16-bk-426401104/13/201610/05/2017Discharge Not Applicable
Caseyville Dock Company, LLCMissouri Eastern4:16-bk-425371104/13/201610/05/2017Discharge Not Applicable
American Land Holdings of New Mexico LLCMissouri Eastern4:16-bk-425791104/13/201610/05/2017Discharge Not Applicable
Peabody International Investments, Inc.Missouri Eastern4:16-bk-425361104/13/201612/07/2017Discharge Not Applicable 12/07/2017
Peabody Coulterville Mining, LLCMissouri Eastern4:16-bk-425501104/13/201606/28/2018
Peabody Gateway North Mining, LLCMissouri Eastern4:16-bk-426241104/13/201601/11/2018Discharge Not Applicable 01/11/2018
Peabody Energy Generation Holding CompanyMissouri Eastern4:16-bk-426561104/13/201612/07/2017Discharge Not Applicable 12/07/2017
Peabody Powder River Operations, LLCMissouri Eastern4:16-bk-426761104/13/201612/07/2017Discharge Not Applicable
Highwall Mining Services CompanyMissouri Eastern4:16-bk-425881104/13/201612/07/2017Discharge Not Applicable
Pond River Land CompanyMissouri Eastern4:16-bk-426291104/13/201612/07/2017Discharge Not Applicable
Century Mineral Resources, Inc.Missouri Eastern4:16-bk-425671104/13/201602/12/2018Discharge Not Applicable
Cyprus Creek Land Resources LLCMissouri Eastern4:16-bk-426021104/13/201611/16/2017Discharge Not Applicable
Peabody-Waterside Development, L.L.C.Missouri Eastern4:16-bk-426621104/13/201611/16/2017Discharge Not Applicable
School Creek Coal Resources, LLCMissouri Eastern4:16-bk-426431104/13/201610/05/2017Discharge Not Applicable
Peabody Venture Fund, LLCMissouri Eastern4:16-bk-426371104/13/201611/16/2017Discharge Not Applicable
Sage Creek Holdings, LLCMissouri Eastern4:16-bk-426701104/13/201611/16/2017Discharge Not Applicable
Porcupine Transportation, LLCMissouri Eastern4:16-bk-426651104/13/201610/05/2017Discharge Not Applicable
Midwest Coal Reserves of Kentucky, LLCMissouri Eastern4:16-bk-426201104/13/201610/05/2017Discharge Not Applicable
Twentymile Holdings, LLCMissouri Eastern4:16-bk-426541104/13/201610/05/2017Discharge Not Applicable
Peabody Asset Holdings, LLCMissouri Eastern4:16-bk-425551104/13/201610/05/2017Discharge Not Applicable 10/05/2017